Detroit Metro, MI

6:41 PM EDT on May 26, 2018 (GMT -0400)
Detroit Metro Wayne County

Weather History for KDTW - April, 2013

Change the Weather History Date:

Thursday, April 25, 2013

  Actual Average Record
Temperature  
Mean Temperature 42 °F 53 °F  
Max Temperature 53 °F 63 °F 87 °F (1990)
Min Temperature 31 °F 43 °F 26 °F (1892)
Degree Days  
Heating Degree Days 23 13  
Month to date heating degree days 501 422  
Since 1 July heating degree days 5719 5837  
Cooling Degree Days 0 0  
Month to date cooling degree days 0 0  
Year to date cooling degree days 0 0  
Moisture  
Dew Point 31 °F    
Average Humidity 62    
Maximum Humidity 85    
Minimum Humidity 38    
Precipitation  
Precipitation 0.06 in 0.10 in 1.41 in (1961)
Month to date precipitation 5.02 2.41  
Year to date precipitation 12.04 8.67  
Snow  
Snow 0.00 in 0.00 in 0.40 in (1976)
Month to date snowfall 0.1 1.6  
Since 1 July snowfall 47.7 42.4  
Snow Depth 0.00 in    
Sea Level Pressure  
Sea Level Pressure 30.20 in    
Wind  
Wind Speed 12 mph (SW)    
Max Wind Speed 29 mph    
Max Gust Speed 35 mph    
Visibility 9 miles    
Events Rain , Thunderstorm    
T = Trace of Precipitation, MM = Missing Value Source: NWS Daily Summary

Daily Weather History Graph

Daily Weather History Graph

Search for Another Location

Airport or City:

Astronomy

Apr. 25, 2013 Rise Set
Actual Time 6:37 AM EDT 8:26 PM EDT
Civil Twilight 6:07 AM EDT 8:56 PM EDT
Nautical Twilight 5:30 AM EDT 9:33 PM EDT
Astronomical Twilight 4:51 AM EDT 10:12 PM EDT
Moon 8:38 PM EDT (4/25) 6:19 AM EDT (4/25)
Length of Visible Light 14h 49m
Length of Day
13h 49m
Full, 100% of the Moon is Illuminated
Apr 25
Full
Apr 25
Full
May 2
Last Quarter
May 9
New
May 18
First Quarter

Hourly Weather History & Observations

Time (EDT) Temp. Windchill Dew Point Humidity Pressure Visibility Wind Dir Wind Speed Gust Speed Precip Events Conditions
12:53 AM 36.0 °F 30.3 °F 26.1 °F 67% 30.17 in 10.0 mi SW 6.9 mph - N/A   Clear
1:53 AM 35.1 °F 28.6 °F 26.1 °F 70% 30.17 in 10.0 mi SSW 8.1 mph - N/A   Clear
2:53 AM 32.0 °F 26.4 °F 26.1 °F 79% 30.15 in 10.0 mi South 5.8 mph - N/A   Partly Cloudy
3:53 AM 32.0 °F 24.8 °F 26.1 °F 79% 30.16 in 10.0 mi SSW 8.1 mph - N/A   Partly Cloudy
4:53 AM 32.0 °F 26.4 °F 26.1 °F 79% 30.16 in 10.0 mi South 5.8 mph - N/A   Clear
5:53 AM 30.9 °F 24.3 °F 27.0 °F 85% 30.16 in 10.0 mi South 6.9 mph - N/A   Partly Cloudy
6:53 AM 35.1 °F 27.4 °F 28.9 °F 78% 30.16 in 10.0 mi SSW 10.4 mph - N/A   Scattered Clouds
7:53 AM 37.0 °F 30.4 °F 30.9 °F 79% 30.16 in 10.0 mi South 9.2 mph - N/A   Mostly Cloudy
8:53 AM 42.1 °F 34.9 °F 33.1 °F 70% 30.15 in 10.0 mi South 13.8 mph - N/A   Mostly Cloudy
9:53 AM 46.0 °F 39.0 °F 34.0 °F 63% 30.14 in 10.0 mi South 17.3 mph - N/A   Mostly Cloudy
10:53 AM 48.9 °F - 33.1 °F 54% 30.14 in 10.0 mi SSW 20.7 mph 29.9 mph N/A   Mostly Cloudy
11:53 AM 42.1 °F 33.9 °F 36.0 °F 79% 30.17 in 7.0 mi SW 17.3 mph - 0.01 in Rain Light Rain
12:05 PM 42.8 °F 35.4 °F 37.4 °F 81% 30.15 in 3.0 mi SW 15.0 mph - 0.01 in Rain Light Rain
12:53 PM 44.1 °F 36.8 °F 37.0 °F 76% 30.18 in 10.0 mi SSW 16.1 mph 26.5 mph 0.02 in   Overcast
1:53 PM 48.9 °F - 37.0 °F 64% 30.17 in 10.0 mi WSW 16.1 mph 21.9 mph 0.00 in   Mostly Cloudy
2:09 PM 42.8 °F 34.8 °F 35.6 °F 76% 30.17 in 2.5 mi West 17.3 mph 29.9 mph 0.00 in Rain Light Rain
2:16 PM 42.8 °F 37.5 °F 37.4 °F 81% 30.17 in 5.0 mi SW 9.2 mph 28.8 mph 0.02 in Rain , Thunderstorm Light Thunderstorms and Rain
2:36 PM 44.6 °F 38.1 °F 37.4 °F 76% 30.17 in 9.0 mi SW 13.8 mph 21.9 mph 0.02 in Rain Light Rain
2:53 PM 43.0 °F 35.7 °F 37.9 °F 82% 30.20 in 4.0 mi West 15.0 mph 21.9 mph 0.03 in Rain Light Rain
3:53 PM 50.0 °F - 37.0 °F 61% 30.18 in 10.0 mi WSW 16.1 mph 21.9 mph 0.00 in   Scattered Clouds
4:53 PM 51.1 °F - 34.0 °F 52% 30.19 in 10.0 mi West 19.6 mph 26.5 mph N/A   Mostly Cloudy
5:53 PM 53.1 °F - 28.9 °F 40% 30.22 in 10.0 mi West 20.7 mph 25.3 mph N/A   Mostly Cloudy
6:53 PM 51.1 °F - 28.0 °F 41% 30.25 in 10.0 mi West 13.8 mph 23.0 mph N/A   Mostly Cloudy
7:53 PM 48.0 °F - 27.0 °F 44% 30.27 in 10.0 mi West 11.5 mph - N/A   Partly Cloudy
8:53 PM 46.0 °F 41.4 °F 26.1 °F 46% 30.30 in 10.0 mi West 9.2 mph - N/A   Partly Cloudy
9:53 PM 44.1 °F 39.5 °F 26.1 °F 49% 30.34 in 10.0 mi West 8.1 mph - N/A   Clear
10:53 PM 42.1 °F 38.4 °F 26.1 °F 53% 30.35 in 10.0 mi West 5.8 mph - N/A   Clear
11:53 PM 42.1 °F - 25.0 °F 51% 30.37 in 10.0 mi Calm Calm - N/A   Clear